[[{"header":{"parameterUnit":"m.s-1","parameterCategory":1,"la1":30.2991,"la2":30.254,"lo1":-89.0895,"lo2":-89.0444,"dy":0.0017,"dx":0.0017,"nx":28,"ny":28,"refTime":"2025-03-11T21:00:00:Z","depth":0,"parameterNumber":2,"parameterNumberName":"U-component_of_WINDS"},"data":[0,0,0,0,0,0,0,0,0,0,0,0,0,0,0,0,0,0,0,0,0,0,0,0,0,0,0,0,0,0,0,0,0,0,0,0,0,0,0,0,0,0,0,0,0,0,0,0,0,0,0,0,0,0,0,0,0,0,0.4467,0.4467,0,0.4469,0.4469,0.4469,0.4434,0.4433,0.4432,0.4431,0.4436,0.4437,0.4438,0,0,0,0,0,0,0,0,0,0,0,0,0,0.4435,0.4436,0.4467,0.4467,0.4467,0.4469,0.4469,0.4469,0.4434,0.4433,0.4432,0.4431,0.4436,0.4437,0.4438,0,0,0,0,0,0,0,0,0,0,0,0,0,0.4445,0.4436,0.4467,0.445,0.4448,0.4469,0.4469,0.4469,0.4434,0.4433,0.4431,0.443,0.4435,0.4437,0.4438,0.4477,0,0,0.4443,0.4444,0,0,0,0,0,0,0,0,0.4444,0.4446,0.4452,0.4451,0.4449,0.445,0.446,0.4472,0.4435,0.444,0.4431,0.4429,0.4442,0.4443,0.4447,0.4477,0.4478,0.4443,0.4444,0.4445,0.4445,0,0,0,0,0,0,0,0.4443,0.4445,0.4468,0.4452,0.445,0.4443,0.4442,0.4462,0.4449,0.4439,0.4436,0.4437,0.4441,0.4445,0.4447,0.4478,0.4443,0.4445,0.4446,0.4446,0.4542,0.4543,0,0,0,0,0,0,0.4445,0.4445,0.4468,0.4468,0.4443,0.4444,0.4444,0.4451,0.4449,0.4447,0.4438,0.4435,0.4443,0.4445,0.4447,0.4492,0.4445,0.4446,0.4447,0.454,0.4542,0.4544,0,0,0,0,0,0,0.4444,0.4447,0.4468,0.4456,0.4458,0.4447,0.4455,0.4452,0.4456,0.4448,0.4446,0.4445,0.4442,0.4444,0.447,0.4492,0.4447,0.4449,0.4538,0.4541,0.4543,0.4584,0,0,0,0,0,0,0.4443,0.4447,0.4461,0.4456,0.4459,0.449,0.4456,0.4453,0.4458,0.4455,0.4454,0.4452,0.4441,0.4468,0.4471,0.4493,0.445,0.4536,0.4539,0.4542,0.4581,0.4587,0.4593,0,0,0,0,0,0.4442,0.4473,0.4462,0.4465,0.4475,0.4491,0.4493,0.4479,0.446,0.4475,0.447,0.4452,0.4489,0.4471,0.4474,0.4497,0.4535,0.4538,0.4542,0.4578,0.4586,0.4593,0,0,0,0,0,0,0.4481,0.4472,0.4459,0.4489,0.4491,0.4485,0.4503,0.4488,0.4496,0.4492,0.4476,0.4476,0.4504,0.4503,0.4483,0.4535,0.4509,0.4513,0.4535,0.4543,0.4549,0.4549,0.4451,0,0,0,0,0,0.4493,0.4505,0.4497,0.4524,0.4526,0.4514,0.4521,0.451,0.4512,0.4513,0.451,0.4513,0.4525,0.4534,0.4545,0.458,0.458,0.4598,0.4604,0.461,0.4614,0.4634,0.4642,0.4555,0.4555,0.4555,0,0,0.4517,0.4514,0.4523,0.4532,0.4532,0.4547,0.4515,0.4532,0.4543,0.4515,0.4539,0.4537,0.454,0.4571,0.4584,0.4571,0.4638,0.4614,0.4618,0.462,0.4638,0.4646,0.4654,0.4558,0.4557,0.4557,0,0,0.457,0.4568,0.4591,0.4592,0.4593,0.4585,0.4591,0.4587,0.4584,0.4608,0.4588,0.4601,0.4623,0.4626,0.463,0.4685,0.4669,0.4689,0.4723,0.4742,0.4749,0.4755,0.4775,0.4782,0.4693,0.4693,0.4693,0,0.4601,0.4621,0.4605,0.4623,0.4628,0.4603,0.4626,0.4628,0.4633,0.4638,0.4622,0.4649,0.4649,0.4681,0.4694,0.4698,0.4705,0.4689,0.4749,0.4755,0.476,0.4779,0.4787,0.4696,0.4695,0.4695,0.4695,0,0.4659,0.4674,0.4692,0.4697,0.4704,0.4725,0.4712,0.4722,0.471,0.4705,0.473,0.4729,0.474,0.4746,0.4736,0.4777,0.4769,0.4751,0.4725,0.4771,0.4789,0.4796,0.4699,0.4698,0.4698,0.4697,0,0,0.4736,0.4731,0.4738,0.474,0.474,0.4751,0.4772,0.4781,0.479,0.4794,0.4812,0.4831,0.4815,0.482,0.481,0.4827,0.4871,0.4807,0.4807,0.482,0.4918,0.4931,0.4939,0.4861,0.4862,0.4863,0.4918,0,0.4787,0.482,0.4807,0.4842,0.4856,0.4833,0.4851,0.4853,0.4848,0.486,0.4856,0.487,0.4847,0.485,0.4866,0.4862,0.4891,0.4858,0.4878,0.4879,0.4878,0.4949,0.4962,0.5014,0.4924,0.4925,0.4926,0,0.4851,0.4858,0.4894,0.4892,0.4897,0.4913,0.4922,0.4933,0.4936,0.4931,0.4937,0.4924,0.4945,0.4918,0.4947,0.4925,0.4933,0.4932,0.4934,0.4935,0.4905,0.4953,0.503,0.5038,0.4937,0.4936,0.4935,0,0.4904,0.4922,0.4946,0.4949,0.4947,0.4959,0.4959,0.496,0.4967,0.4974,0.4979,0.4989,0.4995,0.5004,0.4994,0.4975,0.5025,0.4997,0.5023,0.5024,0.5035,0.5034,0.5115,0.5039,0.5039,0.5039,0.5039,0,0.4963,0.4986,0.497,0.4985,0.5011,0.4995,0.5022,0.5019,0.5021,0.5036,0.5017,0.5031,0.5017,0.5031,0.5023,0.5049,0.5052,0.505,0.5047,0.5051,0.5052,0.5056,0.5053,0.5041,0.504,0.504,0.504,0,0.5026,0.5016,0.5041,0.5037,0.5037,0.5056,0.5053,0.5067,0.5062,0.5081,0.5085,0.5076,0.5091,0.5082,0.5098,0.5093,0.5127,0.512,0.5126,0.5124,0.515,0.5148,0.5237,0.5248,0.5165,0.5166,0.5166,0,0.5064,0.5082,0.508,0.5088,0.5089,0.5103,0.511,0.5096,0.5104,0.5109,0.5123,0.5136,0.5146,0.5172,0.5168,0.518,0.5173,0.5204,0.5175,0.5179,0.5175,0.5174,0.5176,0.521,0.521,0.5211,0.5212,0,0.5134,0.5128,0.5138,0.5148,0.5156,0.5163,0.5168,0.5176,0.5163,0.5173,0.5188,0.5196,0.5212,0.5226,0.5236,0.5237,0.5223,0.5221,0.5228,0.5232,0.5235,0.5234,0.5142,0.5219,0.5218,0.5218,0.5217,0.5217,0.5186,0.52,0.5201,0.5214,0.5217,0.5222,0.5235,0.5232,0.5244,0.5255,0.5246,0.5265,0.5268,0.528,0.5283,0.5298,0.5286,0.5296,0.5298,0.5301,0.5305,0.5233,0.53,0.53,0.53,0.53,0.5299,0,0.5255,0.5254,0.5266,0.5274,0.5284,0.5269,0.5274,0.5284,0.53,0.5304,0.5314,0.5332,0.5346,0.5343,0.5356,0.5368,0.5362,0.5372,0.5371,0.5372,0.5315,0.5308,0.5377,0.5377,0.5377,0.5377,0.5377,0.5377,0.5291,0.5316,0.531,0.5336,0.5336,0.5353,0.5357,0.5363,0.5366,0.5386,0.5397,0.5395,0.5397,0.541,0.5422,0.5421,0.5427,0.544,0.5437,0.5383,0.5376,0.5368,0.5362,0.5441,0.5441,0.5492,0.5493,0.5493]},{"header":{"parameterUnit":"m.s-1","parameterCategory":1,"la1":30.2991,"la2":30.254,"lo1":-89.0895,"lo2":-89.0444,"dy":0.0017,"dx":0.0017,"nx":28,"ny":28,"refTime":"2025-03-11T21:00:00:Z","depth":0,"parameterNumber":3,"parameterNumberName":"V-component_of_WINDS"},"data":[0,0,0,0,0,0,0,0,0,0,0,0,0,0,0,0,0,0,0,0,0,0,0,0,0,0,0,0,0,0,0,0,0,0,0,0,0,0,0,0,0,0,0,0,0,0,0,0,0,0,0,0,0,0,0,0,0,0,3.78,3.7803,0,3.808,3.8084,3.8087,3.8171,3.8169,3.8168,3.8166,3.8456,3.8465,3.8474,0,0,0,0,0,0,0,0,0,0,0,0,0,3.7342,3.735,3.78,3.7803,3.7807,3.808,3.8084,3.8088,3.8171,3.8169,3.8167,3.8166,3.8453,3.8464,3.8475,0,0,0,0,0,0,0,0,0,0,0,0,0,3.7573,3.7353,3.7799,3.7881,3.7891,3.8079,3.8084,3.8089,3.8171,3.8169,3.8167,3.8165,3.845,3.8463,3.8476,3.8603,0,0,3.8518,3.8524,0,0,0,0,0,0,0,0,3.756,3.759,3.7866,3.7876,3.7888,3.8088,3.8029,3.8261,3.8172,3.8065,3.8166,3.8164,3.8336,3.8358,3.8416,3.8617,3.8629,3.8519,3.8527,3.8533,3.8537,0,0,0,0,0,0,0,3.7544,3.7579,3.7911,3.787,3.7883,3.7906,3.7936,3.8073,3.8209,3.8074,3.8081,3.8113,3.8341,3.8403,3.8423,3.8633,3.8519,3.8531,3.8539,3.8544,3.8957,3.896,0,0,0,0,0,0,3.7514,3.7565,3.7902,3.7919,3.7715,3.7916,3.795,3.8026,3.8208,3.8233,3.8114,3.8116,3.838,3.8407,3.8434,3.8597,3.8533,3.8546,3.8553,3.8954,3.8958,3.8961,0,0,0,0,0,0,3.7503,3.7543,3.7891,3.7744,3.779,3.7926,3.8011,3.8033,3.8094,3.8238,3.8263,3.8152,3.838,3.8415,3.8561,3.8608,3.8552,3.8564,3.8951,3.8955,3.8959,3.8923,0,0,0,0,0,0,3.749,3.7539,3.7587,3.7744,3.7798,3.8012,3.8014,3.804,3.8117,3.8121,3.828,3.8304,3.8381,3.854,3.8575,3.8626,3.8575,3.8947,3.8953,3.8958,3.8921,3.8925,3.8929,0,0,0,0,0,3.7473,3.7565,3.7589,3.7629,3.786,3.8014,3.8045,3.813,3.812,3.8171,3.8264,3.8299,3.8597,3.8555,3.8594,3.865,3.8945,3.8951,3.8957,3.8919,3.8924,3.8929,0,0,0,0,0,0,3.741,3.7587,3.7615,3.7761,3.7872,3.8028,3.8094,3.8133,3.825,3.8249,3.8352,3.8387,3.8527,3.8603,3.8552,3.8785,3.8772,3.8787,3.8729,3.8736,3.8741,3.872,3.8586,0,0,0,0,0,3.7413,3.7522,3.7671,3.7785,3.784,3.7957,3.8027,3.8084,3.8203,3.8251,3.8355,3.847,3.8591,3.8667,3.8786,3.8932,3.8969,3.899,3.8994,3.8997,3.9009,3.9096,3.9107,3.8981,3.8981,3.8981,0,0,3.742,3.7531,3.7593,3.7776,3.7868,3.7981,3.7996,3.8113,3.8199,3.8269,3.8414,3.8494,3.8631,3.8778,3.8848,3.8846,3.9052,3.9006,3.9007,3.9017,3.9103,3.9115,3.9126,3.8986,3.8985,3.8984,0,0,3.7491,3.7584,3.7691,3.7784,3.7924,3.8002,3.8028,3.8179,3.8235,3.8382,3.8439,3.8542,3.8746,3.8842,3.8917,3.9027,3.9065,3.9063,3.9087,3.917,3.918,3.9189,3.9231,3.9244,3.9074,3.9074,3.9074,0,3.7483,3.7653,3.7741,3.7857,3.7937,3.8006,3.8117,3.8203,3.8374,3.8429,3.8424,3.8683,3.8779,3.8952,3.8979,3.9037,3.9071,3.9045,3.9171,3.9181,3.9191,3.9233,3.9248,3.9073,3.9073,3.9073,3.9073,0,3.7638,3.7755,3.7825,3.7989,3.8077,3.8189,3.8296,3.8375,3.8424,3.8504,3.8654,3.8773,3.8917,3.8962,3.9011,3.9143,3.9138,3.915,3.9141,3.9201,3.9241,3.9258,3.9071,3.9072,3.9072,3.9072,0,0,3.7676,3.7889,3.7913,3.799,3.8151,3.8244,3.8361,3.8502,3.8569,3.8686,3.8788,3.896,3.8974,3.9059,3.912,3.9193,3.9276,3.9197,3.9202,3.921,3.9432,3.9423,3.9439,3.9302,3.9305,3.9308,3.9422,0,3.7769,3.7979,3.8063,3.8235,3.8346,3.8414,3.8517,3.8627,3.8705,3.8812,3.8899,3.902,3.9028,3.908,3.9155,3.925,3.9322,3.9243,3.94,3.9405,3.9365,3.946,3.945,3.9552,3.9438,3.944,3.9442,0,3.7906,3.8024,3.8206,3.8356,3.8406,3.8496,3.8634,3.8735,3.8863,3.8915,3.9011,3.9069,3.9196,3.9177,3.9356,3.93,3.937,3.9426,3.9433,3.9452,3.9428,3.9484,3.9586,3.9602,3.9468,3.9466,3.9464,0,3.7918,3.8123,3.8259,3.8323,3.85,3.8563,3.864,3.8766,3.8846,3.8968,3.9022,3.9156,3.923,3.9333,3.9427,3.9404,3.9598,3.9586,3.9647,3.9644,3.9685,3.9682,3.9802,3.9727,3.9726,3.9726,3.9726,0,3.8015,3.8124,3.8268,3.8352,3.8477,3.8574,3.8697,3.8779,3.8891,3.8994,3.9061,3.9156,3.9273,3.9384,3.9458,3.9596,3.9628,3.9676,3.9694,3.9671,3.9665,3.9719,3.9715,3.973,3.9729,3.9728,3.9728,0,3.805,3.815,3.8304,3.846,3.8502,3.8588,3.8723,3.8808,3.889,3.9019,3.9056,3.9184,3.9319,3.9422,3.9596,3.9646,3.9794,3.9813,3.975,3.976,3.9816,3.981,3.9977,4.0005,3.9908,3.9908,3.9909,0,3.8105,3.8191,3.8357,3.8431,3.8507,3.8624,3.8708,3.8807,3.8891,3.9045,3.9113,3.9252,3.9369,3.9581,3.9691,3.9826,3.985,3.9899,3.9871,3.9846,3.9854,3.9849,3.9859,3.9903,3.9904,3.9904,3.9905,0,3.8194,3.824,3.8356,3.8492,3.8589,3.87,3.8812,3.8869,3.8989,3.9081,3.9219,3.9309,3.9489,3.9627,3.9774,3.9856,3.9902,3.9913,3.9934,3.9912,3.9873,3.9898,3.9762,3.9909,3.9908,3.9908,3.9908,3.9907,3.8244,3.8324,3.8454,3.8583,3.8678,3.8782,3.8871,3.8964,3.9081,3.9234,3.9286,3.9429,3.9559,3.9761,3.9844,3.9959,3.996,3.9991,3.9999,4.0006,4.0005,3.9853,3.9986,3.9986,3.9986,3.9986,3.9986,0,3.8338,3.8425,3.8542,3.8698,3.88,3.8833,3.896,3.9043,3.9168,3.9285,3.9399,3.956,3.9695,3.9816,3.9958,4.0027,4.0052,4.0061,4.0058,4.0076,3.9994,3.9963,4.0039,4.0039,4.0038,4.0038,4.0038,4.0038,3.8399,3.8538,3.86,3.8788,3.8876,3.9016,3.9087,3.9184,3.9278,3.9454,3.9567,3.9645,3.9765,3.9916,4.0042,4.0075,4.0125,4.0129,4.0167,4.0088,4.0082,4.0075,4.0046,4.0139,4.0139,4.024,4.0241,4.0242]}]]